Location: Saint Mary
(48.7436°N, 113.4291°W)
Time: 17:40:34
(UTC+00:00)

N. Korean satellite - Pass Details

Date: 27 January 2022
Orbit: 437 x 477 km, 97.3° (Epoch: 27 May)

Event Time Altitude Azimuth Distance (km) Brightness Sun altitude
Rises 11:31:06 0° 34° (NE) 2,613 10.9 -35.9°
Reaches altitude 10° 11:35:16 10° 80° (E) 1,718 10.1 -35.2°
Maximum altitude 11:35:41 10° 87° (E) 1,707 10.1 -35.1°
Drops below altitude 10° 11:36:07 10° 94° (E) 1,716 10.1 -35.0°
Enters shadow 11:38:29 - 125° (SE) 2,078 10.2 -34.7°
